{"data":{"norad_id":52471,"intl_designator":"2022-049W","name":"STARLINK-3862","alt_names":[],"object_type":"PAYLOAD","status":"ACTIVE","operator":null,"country":"US","launch_date":"2022-05-06","launch_site_code":"AFETR","launch_vehicle":null,"mission":null,"orbit_class":"UNKNOWN","rcs_meters":null,"size_class":null,"mass_kg":null,"dimensions":null,"purposes":["comms"],"wikipedia_slug":null,"has_3d_model":false,"image_url":null,"decayed_at":null,"tle_current":{"epoch":"2026-09-20T00:00:33.194016Z","epoch_age_seconds":106433,"freshness":"FRESH","line1":"1 52471U 22049W   26263.00038419  .00000711  00000+0  34681-4 0  9994","line2":"2 52471  53.1572 252.1310 0001154  70.0560 290.0565 15.31707777241781","mean_motion":15.31707777,"eccentricity":0.0001154,"inclination_deg":53.1572,"raan_deg":252.131,"arg_perigee_deg":70.056,"mean_anomaly_deg":290.0565,"bstar":3.4681e-5,"rev_number":24178,"period_min":94.012710624241,"perigee_km":469.92645476146,"apogee_km":471.50717022138,"semimajor_km":6848.8538124914,"source":"CELESTRAK","updated_at":"2026-09-20T09:00:40.051627Z"}}}